Find Starlink 31481

NORAD ID: 59541 Int'l Des: 2024-074 Owner: SPXS Country: US Constellation: starlink operational
LEOCIRCULAR

当前视图

正在加载3D地球...

About Starlink 31481

Starlink 31481 (NORAD 59541) is a starlink constellation satellite (v2 mini) launched Apr 18, 2024 by SPXS of US. It operates in LEO, CIRCULAR orbit with a mass of 730.00 kg.

关于 Starlink 31481

正在加载描述...

即将过境

Passes for default location (London). Set your location on the main map for personalized predictions.

高度历史

Loading altitude history...

两行轨道根数

1 59541U 24074H 26169.28107304 -.00000737 00000-0 -17256-4 0 9994
2 59541 43.0027 134.9961 0001179 268.6635 91.4082 15.27575472121406
Epoch: Jun 18, 2026 • Age: 9 hours

当前状态

高度 482.6 km
速度 7.63 km/s
星下点 2.26°N, 14.36°W
发射日期 Apr 18, 2024
运行时间 2.1 years
类型 internet

技术详情

分类 Payload
质量 730.00 kg
干质量 700.00 kg
总质量 730.00 kg
长度 0.30 m
直径 4.10 m
跨度 29.00 m
形状 Box + pan
制造商 SPXS
平台类型 Starlink V2M
阶段状态 In Orbit
所有者/国家 SPXS/US

Most Searched